Погода в Затоне

Хорватия     44°13′17″N   15°10′15″E
темп.,
°C
ветер,
м/с
пор.,
м/с
влажн.,
%
обл.,
%
осадки,
мм/ч
давл.,
гПа
погр.,
м
25 января, пн
пн2501:00+5ссв456791 1.7 1002321
04:00+4в44700 0.0 1004153
07:00+4вюв576917 0.0 1002248
10:00+4юв8108291 1.4 1002561
13:00+2в6109996 17.0 999415
16:00+4в61090100 13.9 999422
19:00+6ссв348496 14.6 1001202
22:00+6св7978100 0.8 1004411
26 января, вт
вт2601:00+5св101668100 1.0 10061134
04:00+5ссв71560100 0.1 10081035
07:00+4с61063100 0.1 1011637
10:00+5с5105833 0.0 1014980
13:00+7с595117 0.0 10141331
16:00+6ссв47510 0.0 1014598
19:00+4св45590 0.0 1016191
22:00+4св34600 0.0 1017128
27 января, ср
ср2701:00+4ссв33600 0.0 1017155
04:00+4ссв46520 0.0 1016287
07:00+5ссв59480 0.0 1017442
10:00+6ссв34500 0.0 1018439
13:00+7ссз34420 0.0 10171056
16:00+7ссз22480 0.0 1016325
19:00+5всв22534 0.0 1017143
22:00+4в335517 0.0 1017111
28 января, чт
чт2801:00+3всв23608 0.0 101784
04:00+3в226332 0.0 101585
07:00+3всв126856 0.0 1015152
10:00+5вюв226776 0.0 1015233
13:00+7зюз126270 0.0 1015560
16:00+7вюв3365100 0.0 1014346
19:00+5в3469100 0.0 1015200
22:00+6вюв3368100 0.0 1016217
29 января, пт
пт2901:00+5вюв4571100 0.0 1016152
04:00+5вюв557148 0.0 1016151
07:00+5вюв567374 0.0 1016182
10:00+8юв71078100 0.0 1015561
13:00+8вюв71178100 0.1 1013609
16:00+9юв71180100 0.1 1011593
19:00+9юв81388100 0.6 1011599
22:00+8юв81388100 0.9 1010634